Stündliche Wetter Bolshie Gridyushki

Heute, 11 April, Sonntag

Zeit Temperatur Niederschläge Wind Luftdruck Luftfeuchtigkeit
00:00 +7°C° 0.1 mm 1 m/S 752 mmHg 90%
01:00 +7°C° 0.1 mm 1 m/S 752 mmHg 91%
02:00 +6°C° 0 mm 2 m/S 752 mmHg 91%
03:00 +6°C° 0.1 mm 2 m/S 752 mmHg 92%
04:00 +6°C° 0.1 mm 2 m/S 752 mmHg 93%
05:00 +6°C° 0.1 mm 2 m/S 752 mmHg 95%
06:00 +6°C° 0.3 mm 2 m/S 753 mmHg 94%
07:00 +7°C° 0.3 mm 2 m/S 753 mmHg 93%
08:00 +7°C° 0.3 mm 2 m/S 753 mmHg 93%
09:00 +8°C° 0.1 mm 2 m/S 753 mmHg 90%
10:00 +8°C° 0.1 mm 2 m/S 754 mmHg 87%
11:00 +9°C° 0.1 mm 3 m/S 754 mmHg 84%
12:00 +10°C° 0 mm 3 m/S 754 mmHg 78%
13:00 +11°C° 0 mm 3 m/S 754 mmHg 71%
14:00 +13°C° 0 mm 3 m/S 754 mmHg 64%
15:00 +13°C° 0 mm 3 m/S 754 mmHg 63%
16:00 +14°C° 0 mm 3 m/S 754 mmHg 61%
17:00 +15°C° 0 mm 4 m/S 754 mmHg 59%
18:00 +13°C° 0 mm 3 m/S 754 mmHg 65%
19:00 +11°C° 0 mm 3 m/S 755 mmHg 71%
20:00 +10°C° 0 mm 3 m/S 755 mmHg 76%
21:00 +9°C° 0 mm 3 m/S 755 mmHg 77%
22:00 +9°C° 0 mm 3 m/S 755 mmHg 78%
23:00 +8°C° 0 mm 3 m/S 756 mmHg 79%

Morgen, 12 April, Montag

Zeit Temperatur Niederschläge Wind Luftdruck Luftfeuchtigkeit
00:00 +7°C° 0 mm 4 m/S 756 mmHg 78%
01:00 +6°C° 0 mm 4 m/S 756 mmHg 78%
02:00 +6°C° 0 mm 4 m/S 756 mmHg 78%
03:00 +5°C° 0 mm 4 m/S 756 mmHg 78%
04:00 +5°C° 0 mm 4 m/S 756 mmHg 78%
05:00 +5°C° 0 mm 4 m/S 756 mmHg 78%
06:00 +6°C° 0 mm 4 m/S 756 mmHg 74%
07:00 +7°C° 0 mm 4 m/S 756 mmHg 70%
08:00 +8°C° 0 mm 5 m/S 756 mmHg 66%
09:00 +9°C° 0 mm 5 m/S 755 mmHg 59%
10:00 +11°C° 0 mm 6 m/S 755 mmHg 53%
11:00 +14°C° 0 mm 6 m/S 755 mmHg 46%
12:00 +14°C° 0 mm 6 m/S 754 mmHg 43%
13:00 +15°C° 0 mm 6 m/S 754 mmHg 41%
14:00 +15°C° 0 mm 6 m/S 753 mmHg 38%
15:00 +15°C° 0 mm 5 m/S 753 mmHg 40%
16:00 +15°C° 0 mm 5 m/S 753 mmHg 42%
17:00 +15°C° 0 mm 4 m/S 752 mmHg 44%
18:00 +13°C° 0 mm 4 m/S 752 mmHg 50%
19:00 +11°C° 0 mm 3 m/S 752 mmHg 57%
20:00 +9°C° 0 mm 3 m/S 752 mmHg 63%
21:00 +9°C° 0 mm 3 m/S 752 mmHg 64%
22:00 +9°C° 0 mm 3 m/S 752 mmHg 65%
23:00 +8°C° 0 mm 3 m/S 752 mmHg 65%

übermorgen, 13 April, Dienstag

Zeit Temperatur Niederschläge Wind Luftdruck Luftfeuchtigkeit
00:00 +8°C° 0 mm 3 m/S 752 mmHg 67%
01:00 +8°C° 0 mm 3 m/S 752 mmHg 68%
02:00 +8°C° 0 mm 3 m/S 751 mmHg 69%
03:00 +8°C° 0 mm 3 m/S 751 mmHg 70%
04:00 +7°C° 0 mm 3 m/S 751 mmHg 71%
05:00 +7°C° 0 mm 3 m/S 751 mmHg 72%
06:00 +8°C° 0 mm 3 m/S 751 mmHg 70%
07:00 +9°C° 0 mm 3 m/S 751 mmHg 68%
08:00 +10°C° 0 mm 3 m/S 751 mmHg 66%
09:00 +11°C° 0 mm 3 m/S 751 mmHg 62%
10:00 +12°C° 0 mm 3 m/S 751 mmHg 57%
11:00 +14°C° 0 mm 3 m/S 751 mmHg 53%
12:00 +14°C° 0 mm 3 m/S 751 mmHg 53%
13:00 +14°C° 0 mm 3 m/S 751 mmHg 54%
14:00 +16°C° 0 mm 3 m/S 751 mmHg 54%
15:00 +13°C° 0 mm 4 m/S 751 mmHg 62%
16:00 +10°C° 0 mm 5 m/S 752 mmHg 71%
17:00 +8°C° 0 mm 5 m/S 752 mmHg 79%
18:00 +7°C° 0 mm 5 m/S 752 mmHg 81%
19:00 +6°C° 0 mm 5 m/S 752 mmHg 83%
20:00 +5°C° 0 mm 4 m/S 752 mmHg 84%
21:00 +5°C° 0 mm 4 m/S 752 mmHg 84%
22:00 +5°C° 0 mm 4 m/S 752 mmHg 84%
23:00 +4°C° 0 mm 4 m/S 752 mmHg 84%

14 April, Mittwoch

Zeit Temperatur Niederschläge Wind Luftdruck Luftfeuchtigkeit
00:00 +4°C° 0.1 mm 4 m/S 752 mmHg 83%
01:00 +3°C° 0.1 mm 5 m/S 751 mmHg 83%
02:00 +3°C° 0.1 mm 5 m/S 751 mmHg 82%
03:00 +3°C° 1 mm 5 m/S 751 mmHg 83%
04:00 +2°C° 1 mm 6 m/S 751 mmHg 85%
05:00 +2°C° 1 mm 6 m/S 751 mmHg 86%
06:00 +2°C° 1.1 mm 6 m/S 751 mmHg 88%
07:00 +1°C° 1.1 mm 6 m/S 751 mmHg 90%
08:00 -1°C° 1.1 mm 6 m/S 751 mmHg 92%
09:00 -1°C° 0.6 mm 6 m/S 751 mmHg 92%
10:00 -1°C° 0.6 mm 6 m/S 751 mmHg 93%
11:00 +1°C° 0.6 mm 6 m/S 751 mmHg 93%
12:00 +1°C° 0.5 mm 6 m/S 751 mmHg 93%
13:00 +1°C° 0.5 mm 6 m/S 751 mmHg 94%
14:00 +1°C° 0.5 mm 6 m/S 751 mmHg 94%
15:00 +1°C° 0.2 mm 5 m/S 751 mmHg 94%
16:00 +1°C° 0.2 mm 5 m/S 751 mmHg 94%
17:00 +1°C° 0.2 mm 5 m/S 751 mmHg 94%
18:00 +1°C° 0 mm 5 m/S 751 mmHg 94%
19:00 +1°C° 0 mm 5 m/S 751 mmHg 94%
20:00 +1°C° 0 mm 5 m/S 751 mmHg 95%
21:00 +1°C° 0 mm 5 m/S 751 mmHg 94%
22:00 +1°C° 0 mm 5 m/S 751 mmHg 94%
23:00 +1°C° 0 mm 5 m/S 751 mmHg 94%

15 April, Donnerstag

Zeit Temperatur Niederschläge Wind Luftdruck Luftfeuchtigkeit
00:00 +1°C° 0 mm 5 m/S 751 mmHg 94%
01:00 +1°C° 0 mm 5 m/S 751 mmHg 94%
02:00 +1°C° 0 mm 5 m/S 751 mmHg 94%
03:00 +1°C° 0 mm 5 m/S 751 mmHg 93%
04:00 +1°C° 0 mm 5 m/S 751 mmHg 92%
05:00 +1°C° 0 mm 6 m/S 751 mmHg 90%
06:00 +1°C° 0 mm 6 m/S 751 mmHg 89%
07:00 +1°C° 0 mm 6 m/S 751 mmHg 88%
08:00 +1°C° 0 mm 6 m/S 751 mmHg 87%
09:00 +2°C° 0 mm 6 m/S 751 mmHg 86%
10:00 +2°C° 0 mm 6 m/S 752 mmHg 85%
11:00 +2°C° 0 mm 6 m/S 752 mmHg 84%
12:00 +2°C° 0 mm 6 m/S 752 mmHg 81%
13:00 +2°C° 0 mm 7 m/S 752 mmHg 79%
14:00 +2°C° 0 mm 7 m/S 752 mmHg 76%
15:00 +2°C° 0 mm 7 m/S 752 mmHg 77%
16:00 +2°C° 0 mm 7 m/S 753 mmHg 79%
17:00 +2°C° 0 mm 7 m/S 753 mmHg 80%
18:00 +2°C° 0.1 mm 6 m/S 753 mmHg 81%
19:00 +2°C° 0.1 mm 6 m/S 753 mmHg 81%
20:00 +2°C° 0.1 mm 6 m/S 754 mmHg 82%
21:00 +2°C° 0.1 mm 6 m/S 754 mmHg 82%
22:00 +2°C° 0.1 mm 7 m/S 754 mmHg 82%
23:00 +2°C° 0.1 mm 7 m/S 754 mmHg 81%

16 April, Freitag

Zeit Temperatur Niederschläge Wind Luftdruck Luftfeuchtigkeit
00:00 +2°C° 0 mm 7 m/S 754 mmHg 80%
01:00 +2°C° 0 mm 7 m/S 755 mmHg 78%
02:00 +2°C° 0 mm 7 m/S 755 mmHg 77%
03:00 0°C° 0 mm 7 m/S 755 mmHg 76%
04:00 0°C° 0 mm 7 m/S 755 mmHg 76%
05:00 0°C° 0 mm 7 m/S 755 mmHg 75%
06:00 0°C° 0 mm 7 m/S 756 mmHg 71%
07:00 +2°C° 0 mm 7 m/S 756 mmHg 68%
08:00 +2°C° 0 mm 7 m/S 757 mmHg 64%
09:00 +2°C° 0 mm 8 m/S 757 mmHg 58%
10:00 +5°C° 0 mm 8 m/S 757 mmHg 52%
11:00 +6°C° 0 mm 8 m/S 757 mmHg 45%
12:00 +6°C° 0 mm 8 m/S 758 mmHg 44%
13:00 +7°C° 0 mm 8 m/S 758 mmHg 43%
14:00 +9°C° 0 mm 8 m/S 758 mmHg 42%
15:00 +9°C° 0 mm 7 m/S 758 mmHg 44%
16:00 +9°C° 0 mm 7 m/S 758 mmHg 47%
17:00 +8°C° 0 mm 6 m/S 758 mmHg 49%
18:00 +7°C° 0 mm 6 m/S 759 mmHg 52%
19:00 +6°C° 0 mm 5 m/S 759 mmHg 55%
20:00 +4°C° 0 mm 4 m/S 760 mmHg 58%
21:00 +4°C° 0 mm 4 m/S 760 mmHg 60%
22:00 +3°C° 0 mm 4 m/S 760 mmHg 63%
23:00 +1°C° 0 mm 4 m/S 761 mmHg 66%
Mehr zeigen

Wir brauchen deine Erlaubnis

Meteoprog und unser Service Anbieter werden persönliche Daten aufbewahren, so wie Cookies, Geräte Bezeichnung oder ähnliche Technologien von deinem Gerät und Prozess, so wie Persönliche Daten Inhalte und Werbungen, genauso wie social Media und den Verkehr zu analysieren.

  • Aufbewahrung und/oder Zugang zu deiner Geräte Informationen.

    Cookies, Geräte Bezeichnung oder andere Informationen, können aufbewahrt oder Zugang zu deinem Gerät erhalten, für den Grund, der oben angegeben wird.

  • Personalisierte Werbung und Inhalte, Messungen, Einblick in das Publikum und Produkt Entwicklung.

    Werbungen und Inhalte können personalisiert werden, basierend auf ein Profil. Mehr Daten können besser personalisierte Werbungen und Inhalte hinzufügen. Werbung und Inhalte können gezeigt und gemessen werden. Einblicke über das Publikum, welche die Werbung gesehen haben und den Inhalt, können abgeleitet werden. So wie Daten können genutzt werden, um es zu verbessern oder die Benutzer Erfahrung zu verbessern das System und die Software.

Wenn du “Ich stimme zu” klickst, erlaubst du uns, die Cookies zu benutzen die Geräte Bezeichnung, den Web oder ähnliche Technologien zu benutzen. Deine Settings, können in deinem Gerät bei deinem Browser geändert werden.

Für den bestimmten Zweck, berechtigten Interessen beruhen darauf, mehr als auf den Inhalt. Du kannst mehr darüber in unseren Privaten und Cookie Politik lesen.